contact:dominique.lefevre@mio.osupytheas.fr, maurice.libes@osupytheas.fr, didier.mallarino@osupytheas.fr
Project:EMSO http://www.emso-fr.org/EMSO-France
Depth: 2436.0 m
Title:EMSO Ligure Ouest : Data MII capteur MICROCAT
DateTime_Computer,Latitude,Longitude,Temperature,Conductivity,Pressure,DateTime_Instrument
DateTime_Computer,Latitude,Longitude,degC,S m-1,dbar,DateTime_Instrument
2023-03-26T00:02:47Z,42.805,6.029,13.3018,4.60072,2470.707,2023-3-26T02:05:33Z
2023-03-26T00:05:50Z,42.805,6.029,13.3020,4.60072,2470.717,2023-3-26T02:08:36Z
2023-03-26T00:08:53Z,42.805,6.029,13.3017,4.60072,2470.67,2023-3-26T02:11:39Z
2023-03-26T00:11:56Z,42.805,6.029,13.3011,4.60072,2470.684,2023-3-26T02:14:42Z
2023-03-26T00:14:59Z,42.805,6.029,13.3017,4.60074,2470.693,2023-3-26T02:17:45Z
2023-03-26T00:18:02Z,42.805,6.029,13.3015,4.60072,2470.717,2023-3-26T02:20:48Z
2023-03-26T00:21:06Z,42.805,6.029,13.3014,4.60070,2470.693,2023-3-26T02:23:51Z
2023-03-26T00:24:09Z,42.805,6.029,13.3015,4.60072,2470.693,2023-3-26T02:26:54Z
2023-03-26T00:27:12Z,42.805,6.029,13.3015,4.60072,2470.684,2023-3-26T02:29:57Z
2023-03-26T00:30:15Z,42.805,6.029,13.3015,4.60072,2470.707,2023-3-26T02:33:00Z
2023-03-26T00:33:18Z,42.805,6.029,13.3017,4.60074,2470.67,2023-3-26T02:36:03Z
2023-03-26T00:36:21Z,42.805,6.029,13.3016,4.60072,2470.67,2023-3-26T02:39:06Z
2023-03-26T00:39:24Z,42.805,6.029,13.3015,4.60072,2470.684,2023-3-26T02:42:10Z
2023-03-26T00:42:27Z,42.805,6.029,13.3015,4.60072,2470.67,2023-3-26T02:45:13Z
2023-03-26T00:45:30Z,42.805,6.029,13.3013,4.60072,2470.67,2023-3-26T02:48:16Z
2023-03-26T00:48:33Z,42.805,6.029,13.3014,4.60072,2470.67,2023-3-26T02:51:19Z
2023-03-26T00:51:36Z,42.805,6.029,13.3016,4.60073,2470.707,2023-3-26T02:54:22Z
2023-03-26T00:54:39Z,42.805,6.029,13.3011,4.60072,2470.693,2023-3-26T02:57:25Z
2023-03-26T00:57:43Z,42.805,6.029,13.3015,4.60072,2470.693,2023-3-26T03:00:28Z
2023-03-26T01:00:46Z,42.805,6.029,13.3018,4.60072,2470.684,2023-3-26T03:03:31Z
2023-03-26T01:03:49Z,42.805,6.029,13.3015,4.60072,2470.67,2023-3-26T03:06:34Z
2023-03-26T01:06:52Z,42.805,6.029,13.3015,4.60072,2470.67,2023-3-26T03:09:37Z
2023-03-26T01:09:55Z,42.805,6.029,13.3016,4.60072,2470.684,2023-3-26T03:12:40Z
2023-03-26T01:12:58Z,42.805,6.029,13.3012,4.60072,2470.646,2023-3-26T03:15:43Z
2023-03-26T01:16:01Z,42.805,6.029,13.3014,4.60072,2470.646,2023-3-26T03:18:47Z
2023-03-26T01:19:04Z,42.805,6.029,13.3017,4.60071,2470.661,2023-3-26T03:21:50Z
2023-03-26T01:22:07Z,42.805,6.029,13.3014,4.60072,2470.637,2023-3-26T03:24:53Z
2023-03-26T01:25:10Z,42.805,6.029,13.3016,4.60073,2470.624,2023-3-26T03:27:56Z
2023-03-26T01:28:13Z,42.805,6.029,13.3016,4.60074,2470.646,2023-3-26T03:30:59Z
2023-03-26T01:31:16Z,42.805,6.029,13.3015,4.60071,2470.646,2023-3-26T03:34:02Z
2023-03-26T01:34:20Z,42.805,6.029,13.3020,4.60073,2470.707,2023-3-26T03:37:05Z
2023-03-26T01:37:23Z,42.805,6.029,13.3016,4.60072,2470.661,2023-3-26T03:40:08Z
2023-03-26T01:40:26Z,42.805,6.029,13.3015,4.60074,2470.684,2023-3-26T03:43:11Z
2023-03-26T01:43:29Z,42.805,6.029,13.3015,4.60074,2470.646,2023-3-26T03:46:14Z
2023-03-26T01:46:32Z,42.805,6.029,13.3013,4.60072,2470.646,2023-3-26T03:49:17Z
2023-03-26T01:49:35Z,42.805,6.029,13.3019,4.60072,2470.624,2023-3-26T03:52:20Z
2023-03-26T01:52:38Z,42.805,6.029,13.3014,4.60073,2470.661,2023-3-26T03:55:24Z
2023-03-26T01:55:41Z,42.805,6.029,13.3017,4.60073,2470.624,2023-3-26T03:58:27Z
2023-03-26T01:58:44Z,42.805,6.029,13.3018,4.60072,2470.624,2023-3-26T04:01:30Z
2023-03-26T02:01:47Z,42.805,6.029,13.3014,4.60072,2470.624,2023-3-26T04:04:33Z
2023-03-26T02:04:50Z,42.805,6.029,13.3012,4.60072,2470.646,2023-3-26T04:07:36Z
2023-03-26T02:07:53Z,42.805,6.029,13.3015,4.60074,2470.624,2023-3-26T04:10:39Z
2023-03-26T02:10:57Z,42.805,6.029,13.3019,4.60072,2470.624,2023-3-26T04:13:42Z
2023-03-26T02:14:00Z,42.805,6.029,13.3016,4.60073,2470.614,2023-3-26T04:16:45Z
2023-03-26T02:17:03Z,42.805,6.029,13.3015,4.60072,2470.624,2023-3-26T04:19:48Z
2023-03-26T02:20:06Z,42.805,6.029,13.3014,4.60074,2470.586,2023-3-26T04:22:51Z
2023-03-26T02:23:09Z,42.805,6.029,13.3015,4.60072,2470.624,2023-3-26T04:25:54Z
2023-03-26T02:26:12Z,42.805,6.029,13.3014,4.60072,2470.614,2023-3-26T04:28:57Z
2023-03-26T02:29:15Z,42.805,6.029,13.3015,4.60073,2470.624,2023-3-26T04:32:01Z
2023-03-26T02:32:18Z,42.805,6.029,13.3015,4.60074,2470.624,2023-3-26T04:35:04Z
2023-03-26T02:35:21Z,42.805,6.029,13.3017,4.60073,2470.637,2023-3-26T04:38:07Z
2023-03-26T02:38:24Z,42.805,6.029,13.3016,4.60073,2470.624,2023-3-26T04:41:10Z
2023-03-26T02:41:27Z,42.805,6.029,13.3017,4.60072,2470.624,2023-3-26T04:44:13Z
2023-03-26T02:44:30Z,42.805,6.029,13.3019,4.60073,2470.646,2023-3-26T04:47:16Z
2023-03-26T02:47:34Z,42.805,6.029,13.3015,4.60074,2470.614,2023-3-26T04:50:19Z
2023-03-26T02:50:37Z,42.805,6.029,13.3014,4.60072,2470.624,2023-3-26T04:53:22Z
2023-03-26T02:53:40Z,42.805,6.029,13.3015,4.60074,2470.624,2023-3-26T04:56:25Z
2023-03-26T02:56:43Z,42.805,6.029,13.3014,4.60073,2470.6,2023-3-26T04:59:28Z
2023-03-26T02:59:46Z,42.805,6.029,13.3015,4.60074,2470.6,2023-3-26T05:02:31Z
2023-03-26T03:02:49Z,42.805,6.029,13.3013,4.60074,2470.6,2023-3-26T05:05:34Z
2023-03-26T03:05:52Z,42.805,6.029,13.3012,4.60074,2470.614,2023-3-26T05:08:38Z
2023-03-26T03:08:55Z,42.805,6.029,13.3015,4.60073,2470.6,2023-3-26T05:11:41Z
2023-03-26T03:11:58Z,42.805,6.029,13.3016,4.60072,2470.586,2023-3-26T05:14:44Z
2023-03-26T03:15:01Z,42.805,6.029,13.3015,4.60074,2470.6,2023-3-26T05:17:47Z
2023-03-26T03:18:04Z,42.805,6.029,13.3015,4.60073,2470.614,2023-3-26T05:20:50Z
2023-03-26T03:21:07Z,42.805,6.029,13.3011,4.60073,2470.6,2023-3-26T05:23:53Z
2023-03-26T03:24:10Z,42.805,6.029,13.3014,4.60073,2470.61,2023-3-26T05:26:56Z
2023-03-26T03:27:14Z,42.805,6.029,13.3020,4.60075,2470.577,2023-3-26T05:29:59Z
2023-03-26T03:30:17Z,42.805,6.029,13.3013,4.60073,2470.6,2023-3-26T05:33:02Z
2023-03-26T03:33:20Z,42.805,6.029,13.3015,4.60072,2470.614,2023-3-26T05:36:05Z
2023-03-26T03:36:23Z,42.805,6.029,13.3014,4.60073,2470.61,2023-3-26T05:39:08Z
2023-03-26T03:39:26Z,42.805,6.029,13.3012,4.60074,2470.591,2023-3-26T05:42:11Z
2023-03-26T03:42:29Z,42.805,6.029,13.3016,4.60074,2470.577,2023-3-26T05:45:15Z
2023-03-26T03:45:32Z,42.805,6.029,13.3013,4.60073,2470.577,2023-3-26T05:48:18Z
2023-03-26T03:48:35Z,42.805,6.029,13.3014,4.60074,2470.553,2023-3-26T05:51:21Z
2023-03-26T03:51:38Z,42.805,6.029,13.3015,4.60074,2470.6,2023-3-26T05:54:24Z
2023-03-26T03:54:41Z,42.805,6.029,13.3013,4.60074,2470.591,2023-3-26T05:57:27Z
2023-03-26T03:57:44Z,42.805,6.029,13.3014,4.60074,2470.6,2023-3-26T06:00:30Z
2023-03-26T04:00:47Z,42.805,6.029,13.3018,4.60074,2470.591,2023-3-26T06:03:33Z
2023-03-26T04:03:51Z,42.805,6.029,13.3017,4.60073,2470.591,2023-3-26T06:06:36Z
2023-03-26T04:06:54Z,42.805,6.029,13.3015,4.60073,2470.6,2023-3-26T06:09:39Z
2023-03-26T04:09:57Z,42.805,6.029,13.3011,4.60074,2470.591,2023-3-26T06:12:42Z
2023-03-26T04:13:00Z,42.805,6.029,13.3015,4.60073,2470.577,2023-3-26T06:15:45Z
2023-03-26T04:16:03Z,42.805,6.029,13.3015,4.60074,2470.614,2023-3-26T06:18:48Z
2023-03-26T04:19:06Z,42.805,6.029,13.3015,4.60074,2470.553,2023-3-26T06:21:52Z
2023-03-26T04:22:09Z,42.805,6.029,13.3015,4.60074,2470.577,2023-3-26T06:24:55Z
2023-03-26T04:25:12Z,42.805,6.029,13.3016,4.60074,2470.6,2023-3-26T06:27:58Z
2023-03-26T04:28:15Z,42.805,6.029,13.3015,4.60075,2470.591,2023-3-26T06:31:01Z
2023-03-26T04:31:19Z,42.805,6.029,13.3019,4.60074,2470.553,2023-3-26T06:34:05Z
2023-03-26T04:34:22Z,42.805,6.029,13.3015,4.60075,2470.6,2023-3-26T06:37:08Z
2023-03-26T04:37:25Z,42.805,6.029,13.3015,4.60074,2470.577,2023-3-26T06:40:11Z
2023-03-26T04:40:28Z,42.805,6.029,13.3014,4.60074,2470.614,2023-3-26T06:43:14Z
2023-03-26T04:43:31Z,42.805,6.029,13.3015,4.60075,2470.577,2023-3-26T06:46:17Z
2023-03-26T04:46:34Z,42.805,6.029,13.3014,4.60074,2470.6,2023-3-26T06:49:20Z
2023-03-26T04:49:37Z,42.805,6.029,13.3019,4.60074,2470.591,2023-3-26T06:52:23Z
2023-03-26T04:52:41Z,42.805,6.029,13.3016,4.60074,2470.563,2023-3-26T06:55:26Z
2023-03-26T04:55:44Z,42.805,6.029,13.3017,4.60073,2470.591,2023-3-26T06:58:29Z
2023-03-26T04:58:47Z,42.805,6.029,13.3016,4.60074,2470.577,2023-3-26T07:01:32Z
2023-03-26T05:01:50Z,42.805,6.029,13.3015,4.60073,2470.577,2023-3-26T07:04:35Z
2023-03-26T05:04:53Z,42.805,6.029,13.3018,4.60074,2470.577,2023-3-26T07:07:38Z
2023-03-26T05:07:56Z,42.805,6.029,13.3015,4.60075,2470.614,2023-3-26T07:10:41Z
2023-03-26T05:10:59Z,42.805,6.029,13.3019,4.60075,2470.577,2023-3-26T07:13:45Z
2023-03-26T05:14:02Z,42.805,6.029,13.3014,4.60074,2470.577,2023-3-26T07:16:48Z
2023-03-26T05:17:05Z,42.805,6.029,13.3017,4.60074,2470.577,2023-3-26T07:19:51Z
2023-03-26T05:20:08Z,42.805,6.029,13.3017,4.60076,2470.6,2023-3-26T07:22:54Z
2023-03-26T05:23:11Z,42.805,6.029,13.3014,4.60075,2470.577,2023-3-26T07:25:57Z
2023-03-26T05:26:14Z,42.805,6.029,13.3014,4.60077,2470.577,2023-3-26T07:29:00Z
2023-03-26T05:29:17Z,42.805,6.029,13.3019,4.60075,2470.577,2023-3-26T07:32:03Z
2023-03-26T05:32:21Z,42.805,6.029,13.3015,4.60077,2470.577,2023-3-26T07:35:06Z
2023-03-26T05:35:24Z,42.805,6.029,13.3016,4.60074,2470.577,2023-3-26T07:38:09Z
2023-03-26T05:38:27Z,42.805,6.029,13.3015,4.60074,2470.553,2023-3-26T07:41:12Z
2023-03-26T05:41:30Z,42.805,6.029,13.3019,4.60074,2470.591,2023-3-26T07:44:15Z
2023-03-26T05:44:33Z,42.805,6.029,13.3019,4.60076,2470.6,2023-3-26T07:47:18Z
2023-03-26T05:47:36Z,42.805,6.029,13.3019,4.60076,2470.563,2023-3-26T07:50:22Z
2023-03-26T05:50:39Z,42.805,6.029,13.3020,4.60076,2470.553,2023-3-26T07:53:25Z
2023-03-26T05:53:42Z,42.805,6.029,13.3016,4.60076,2470.577,2023-3-26T07:56:28Z
2023-03-26T05:56:45Z,42.805,6.029,13.3015,4.60076,2470.614,2023-3-26T07:59:31Z
2023-03-26T05:59:48Z,42.805,6.029,13.3018,4.60077,2470.614,2023-3-26T08:02:34Z
2023-03-26T06:02:51Z,42.805,6.029,13.3015,4.60075,2470.6,2023-3-26T08:05:37Z
2023-03-26T06:05:54Z,42.805,6.029,13.3017,4.60075,2470.591,2023-3-26T08:08:40Z
2023-03-26T06:08:58Z,42.805,6.029,13.3019,4.60077,2470.614,2023-3-26T08:11:43Z
2023-03-26T06:12:01Z,42.805,6.029,13.3015,4.60076,2470.637,2023-3-26T08:14:46Z
2023-03-26T06:15:04Z,42.805,6.029,13.3019,4.60079,2470.567,2023-3-26T08:17:49Z
2023-03-26T06:18:07Z,42.805,6.029,13.3019,4.60080,2470.6,2023-3-26T08:20:52Z
2023-03-26T06:21:10Z,42.805,6.029,13.3015,4.60078,2470.614,2023-3-26T08:23:55Z
2023-03-26T06:24:13Z,42.805,6.029,13.3018,4.60077,2470.637,2023-3-26T08:26:59Z
2023-03-26T06:27:16Z,42.805,6.029,13.3019,4.60078,2470.591,2023-3-26T08:30:02Z
2023-03-26T06:30:18Z,42.805,6.029,13.3015,4.60080,2470.624,2023-3-26T08:33:03Z
2023-03-26T06:33:21Z,42.805,6.029,13.3017,4.60079,2470.637,2023-3-26T08:36:06Z
2023-03-26T06:36:24Z,42.805,6.029,13.3019,4.60079,2470.646,2023-3-26T08:39:09Z
2023-03-26T06:39:27Z,42.805,6.029,13.3021,4.60080,2470.661,2023-3-26T08:42:12Z
2023-03-26T06:42:30Z,42.805,6.029,13.3016,4.60080,2470.624,2023-3-26T08:45:15Z
2023-03-26T06:45:33Z,42.805,6.029,13.3021,4.60081,2470.6,2023-3-26T08:48:19Z
2023-03-26T06:48:36Z,42.805,6.029,13.3021,4.60080,2470.6,2023-3-26T08:51:22Z
2023-03-26T06:51:39Z,42.805,6.029,13.3021,4.60081,2470.624,2023-3-26T08:54:25Z
2023-03-26T06:54:42Z,42.805,6.029,13.3021,4.60081,2470.67,2023-3-26T08:57:28Z
2023-03-26T06:57:45Z,42.805,6.029,13.3020,4.60080,2470.646,2023-3-26T09:00:31Z
2023-03-26T07:00:48Z,42.805,6.029,13.3020,4.60081,2470.624,2023-3-26T09:03:34Z
2023-03-26T07:03:51Z,42.805,6.029,13.3021,4.60080,2470.624,2023-3-26T09:06:37Z
2023-03-26T07:06:55Z,42.805,6.029,13.3021,4.60081,2470.646,2023-3-26T09:09:40Z
2023-03-26T07:09:58Z,42.805,6.029,13.3018,4.60081,2470.646,2023-3-26T09:12:43Z
2023-03-26T07:13:01Z,42.805,6.029,13.3017,4.60081,2470.624,2023-3-26T09:15:46Z
2023-03-26T07:16:04Z,42.805,6.029,13.3018,4.60081,2470.67,2023-3-26T09:18:49Z
2023-03-26T07:19:07Z,42.805,6.029,13.3021,4.60081,2470.646,2023-3-26T09:21:53Z
2023-03-26T07:22:10Z,42.805,6.029,13.3019,4.60081,2470.633,2023-3-26T09:24:56Z
2023-03-26T07:25:13Z,42.805,6.029,13.3023,4.60081,2470.67,2023-3-26T09:27:59Z
2023-03-26T07:28:16Z,42.805,6.029,13.3017,4.60081,2470.646,2023-3-26T09:31:02Z
2023-03-26T07:31:19Z,42.805,6.029,13.3019,4.60081,2470.646,2023-3-26T09:34:05Z
2023-03-26T07:34:22Z,42.805,6.029,13.3019,4.60081,2470.67,2023-3-26T09:37:08Z
2023-03-26T07:37:25Z,42.805,6.029,13.3022,4.60081,2470.646,2023-3-26T09:40:11Z
2023-03-26T07:40:28Z,42.805,6.029,13.3017,4.60080,2470.67,2023-3-26T09:43:14Z
2023-03-26T07:43:32Z,42.805,6.029,13.3021,4.60081,2470.67,2023-3-26T09:46:17Z
2023-03-26T07:46:35Z,42.805,6.029,13.3022,4.60081,2470.67,2023-3-26T09:49:20Z
2023-03-26T07:49:38Z,42.805,6.029,13.3019,4.60081,2470.684,2023-3-26T09:52:23Z
2023-03-26T07:52:41Z,42.805,6.029,13.3019,4.60081,2470.684,2023-3-26T09:55:26Z
2023-03-26T07:55:44Z,42.805,6.029,13.3019,4.60081,2470.67,2023-3-26T09:58:30Z
2023-03-26T07:58:47Z,42.805,6.029,13.3025,4.60082,2470.67,2023-3-26T10:01:33Z
2023-03-26T08:01:50Z,42.805,6.029,13.3024,4.60081,2470.717,2023-3-26T10:04:36Z
2023-03-26T08:04:53Z,42.805,6.029,13.3021,4.60081,2470.693,2023-3-26T10:07:39Z
2023-03-26T08:07:56Z,42.805,6.029,13.3024,4.60081,2470.693,2023-3-26T10:10:42Z
2023-03-26T08:10:59Z,42.805,6.029,13.3022,4.60081,2470.717,2023-3-26T10:13:45Z
2023-03-26T08:14:02Z,42.805,6.029,13.3021,4.60081,2470.707,2023-3-26T10:16:48Z
2023-03-26T08:17:05Z,42.805,6.029,13.3022,4.60081,2470.707,2023-3-26T10:19:51Z
2023-03-26T08:20:09Z,42.805,6.029,13.3020,4.60083,2470.707,2023-3-26T10:22:54Z
2023-03-26T08:23:12Z,42.805,6.029,13.3021,4.60082,2470.67,2023-3-26T10:25:57Z
2023-03-26T08:26:15Z,42.805,6.029,13.3022,4.60081,2470.717,2023-3-26T10:29:00Z
2023-03-26T08:29:18Z,42.805,6.029,13.3021,4.60082,2470.707,2023-3-26T10:32:03Z
2023-03-26T08:32:21Z,42.805,6.029,13.3020,4.60081,2470.679,2023-3-26T10:35:07Z
2023-03-26T08:35:24Z,42.805,6.029,13.3022,4.60082,2470.693,2023-3-26T10:38:10Z
2023-03-26T08:38:27Z,42.805,6.029,13.3023,4.60081,2470.707,2023-3-26T10:41:13Z
2023-03-26T08:41:30Z,42.805,6.029,13.3024,4.60081,2470.703,2023-3-26T10:44:16Z
2023-03-26T08:44:33Z,42.805,6.029,13.3026,4.60083,2470.693,2023-3-26T10:47:19Z
2023-03-26T08:47:36Z,42.805,6.029,13.3021,4.60082,2470.693,2023-3-26T10:50:22Z
2023-03-26T08:50:39Z,42.805,6.029,13.3022,4.60084,2470.717,2023-3-26T10:53:25Z
2023-03-26T08:53:43Z,42.805,6.029,13.3022,4.60082,2470.73,2023-3-26T10:56:28Z
2023-03-26T08:56:46Z,42.805,6.029,13.3022,4.60082,2470.717,2023-3-26T10:59:31Z
2023-03-26T08:59:49Z,42.805,6.029,13.3024,4.60082,2470.717,2023-3-26T11:02:34Z
2023-03-26T09:02:52Z,42.805,6.029,13.3020,4.60081,2470.717,2023-3-26T11:05:37Z
2023-03-26T09:05:55Z,42.805,6.029,13.3022,4.60082,2470.717,2023-3-26T11:08:41Z
2023-03-26T09:08:58Z,42.805,6.029,13.3022,4.60081,2470.717,2023-3-26T11:11:44Z
2023-03-26T09:12:01Z,42.805,6.029,13.3018,4.60081,2470.693,2023-3-26T11:14:47Z
2023-03-26T09:15:04Z,42.805,6.029,13.3021,4.60082,2470.74,2023-3-26T11:17:50Z
2023-03-26T09:18:07Z,42.805,6.029,13.3023,4.60082,2470.717,2023-3-26T11:20:53Z
2023-03-26T09:21:10Z,42.805,6.029,13.3024,4.60082,2470.717,2023-3-26T11:23:56Z
2023-03-26T09:24:13Z,42.805,6.029,13.3021,4.60081,2470.693,2023-3-26T11:26:59Z
2023-03-26T09:27:17Z,42.805,6.029,13.3021,4.60082,2470.717,2023-3-26T11:30:02Z
2023-03-26T09:30:20Z,42.805,6.029,13.3021,4.60082,2470.763,2023-3-26T11:33:05Z
2023-03-26T09:33:23Z,42.805,6.029,13.3018,4.60083,2470.73,2023-3-26T11:36:08Z
2023-03-26T09:36:26Z,42.805,6.029,13.3019,4.60081,2470.754,2023-3-26T11:39:11Z
2023-03-26T09:39:29Z,42.805,6.029,13.3021,4.60082,2470.74,2023-3-26T11:42:15Z
2023-03-26T09:42:32Z,42.805,6.029,13.3019,4.60082,2470.74,2023-3-26T11:45:18Z
2023-03-26T09:45:35Z,42.805,6.029,13.3020,4.60081,2470.74,2023-3-26T11:48:21Z
2023-03-26T09:48:38Z,42.805,6.029,13.3020,4.60081,2470.74,2023-3-26T11:51:24Z
2023-03-26T09:51:41Z,42.805,6.029,13.3022,4.60083,2470.707,2023-3-26T11:54:27Z
2023-03-26T09:54:44Z,42.805,6.029,13.3023,4.60081,2470.754,2023-3-26T11:57:30Z
2023-03-26T09:57:47Z,42.805,6.029,13.3021,4.60082,2470.754,2023-3-26T12:00:33Z
2023-03-26T10:00:51Z,42.805,6.029,13.3023,4.60082,2470.703,2023-3-26T12:03:36Z
2023-03-26T10:03:54Z,42.805,6.029,13.3019,4.60081,2470.74,2023-3-26T12:06:39Z
2023-03-26T10:06:57Z,42.805,6.029,13.3021,4.60081,2470.73,2023-3-26T12:09:42Z
2023-03-26T10:10:00Z,42.805,6.029,13.3025,4.60081,2470.717,2023-3-26T12:12:45Z
2023-03-26T10:13:03Z,42.805,6.029,13.3024,4.60081,2470.717,2023-3-26T12:15:49Z
2023-03-26T10:16:06Z,42.805,6.029,13.3024,4.60080,2470.74,2023-3-26T12:18:52Z
2023-03-26T10:19:09Z,42.805,6.029,13.3021,4.60081,2470.717,2023-3-26T12:21:55Z
2023-03-26T10:22:12Z,42.805,6.029,13.3024,4.60081,2470.717,2023-3-26T12:24:58Z
2023-03-26T10:25:15Z,42.805,6.029,13.3019,4.60081,2470.754,2023-3-26T12:28:01Z
2023-03-26T10:28:18Z,42.805,6.029,13.3019,4.60081,2470.73,2023-3-26T12:31:04Z
2023-03-26T10:31:21Z,42.805,6.029,13.3021,4.60082,2470.754,2023-3-26T12:34:07Z
2023-03-26T10:34:24Z,42.805,6.029,13.3017,4.60081,2470.73,2023-3-26T12:37:10Z
2023-03-26T10:37:28Z,42.805,6.029,13.3023,4.60081,2470.717,2023-3-26T12:40:13Z
2023-03-26T10:40:31Z,42.805,6.029,13.3017,4.60081,2470.74,2023-3-26T12:43:16Z
2023-03-26T10:43:34Z,42.805,6.029,13.3021,4.60081,2470.73,2023-3-26T12:46:19Z
2023-03-26T10:46:37Z,42.805,6.029,13.3021,4.60081,2470.74,2023-3-26T12:49:23Z
2023-03-26T10:49:40Z,42.805,6.029,13.3024,4.60081,2470.73,2023-3-26T12:52:26Z
2023-03-26T10:52:43Z,42.805,6.029,13.3023,4.60081,2470.703,2023-3-26T12:55:29Z
2023-03-26T10:55:46Z,42.805,6.029,13.3018,4.60081,2470.717,2023-3-26T12:58:32Z
2023-03-26T10:58:49Z,42.805,6.029,13.3021,4.60080,2470.74,2023-3-26T13:01:35Z
2023-03-26T11:01:52Z,42.805,6.029,13.3015,4.60080,2470.717,2023-3-26T13:04:38Z
2023-03-26T11:04:55Z,42.805,6.029,13.3015,4.60080,2470.717,2023-3-26T13:07:41Z
2023-03-26T11:07:58Z,42.805,6.029,13.3019,4.60081,2470.717,2023-3-26T13:10:44Z
2023-03-26T11:11:02Z,42.805,6.029,13.3022,4.60080,2470.73,2023-3-26T13:13:47Z
2023-03-26T11:14:05Z,42.805,6.029,13.3020,4.60081,2470.73,2023-3-26T13:16:50Z
2023-03-26T11:17:08Z,42.805,6.029,13.3020,4.60080,2470.73,2023-3-26T13:19:53Z
2023-03-26T11:20:11Z,42.805,6.029,13.3020,4.60081,2470.717,2023-3-26T13:22:57Z
2023-03-26T11:23:14Z,42.805,6.029,13.3021,4.60081,2470.693,2023-3-26T13:26:00Z
2023-03-26T11:26:17Z,42.805,6.029,13.3022,4.60081,2470.717,2023-3-26T13:29:03Z
2023-03-26T11:29:20Z,42.805,6.029,13.3021,4.60081,2470.717,2023-3-26T13:32:06Z
2023-03-26T11:32:23Z,42.805,6.029,13.3019,4.60081,2470.717,2023-3-26T13:35:09Z
2023-03-26T11:35:26Z,42.805,6.029,13.3020,4.60080,2470.74,2023-3-26T13:38:12Z
2023-03-26T11:38:29Z,42.805,6.029,13.3019,4.60081,2470.693,2023-3-26T13:41:15Z
2023-03-26T11:41:32Z,42.805,6.029,13.3019,4.60081,2470.73,2023-3-26T13:44:18Z
2023-03-26T11:44:36Z,42.805,6.029,13.3020,4.60081,2470.73,2023-3-26T13:47:21Z
2023-03-26T11:47:39Z,42.805,6.029,13.3020,4.60081,2470.693,2023-3-26T13:50:24Z
2023-03-26T11:50:42Z,42.805,6.029,13.3021,4.60082,2470.707,2023-3-26T13:53:27Z
2023-03-26T11:53:45Z,42.805,6.029,13.3019,4.60080,2470.693,2023-3-26T13:56:31Z
2023-03-26T11:56:48Z,42.805,6.029,13.3016,4.60080,2470.717,2023-3-26T13:59:34Z
2023-03-26T11:59:51Z,42.805,6.029,13.3023,4.60081,2470.684,2023-3-26T14:02:37Z
2023-03-26T12:02:54Z,42.805,6.029,13.3021,4.60081,2470.684,2023-3-26T14:05:40Z
2023-03-26T12:05:57Z,42.805,6.029,13.3021,4.60079,2470.67,2023-3-26T14:08:43Z
2023-03-26T12:09:00Z,42.805,6.029,13.3021,4.60080,2470.693,2023-3-26T14:11:46Z
2023-03-26T12:12:03Z,42.805,6.029,13.3021,4.60079,2470.693,2023-3-26T14:14:49Z
2023-03-26T12:15:06Z,42.805,6.029,13.3019,4.60081,2470.67,2023-3-26T14:17:52Z
2023-03-26T12:18:10Z,42.805,6.029,13.3024,4.60080,2470.67,2023-3-26T14:20:55Z
2023-03-26T12:21:13Z,42.805,6.029,13.3022,4.60080,2470.73,2023-3-26T14:23:58Z
2023-03-26T12:24:16Z,42.805,6.029,13.3020,4.60080,2470.646,2023-3-26T14:27:01Z
2023-03-26T12:27:19Z,42.805,6.029,13.3017,4.60079,2470.646,2023-3-26T14:30:04Z
2023-03-26T12:30:22Z,42.805,6.029,13.3019,4.60080,2470.646,2023-3-26T14:33:08Z
2023-03-26T12:33:25Z,42.805,6.029,13.3023,4.60080,2470.67,2023-3-26T14:36:11Z
2023-03-26T12:36:28Z,42.805,6.029,13.3024,4.60081,2470.67,2023-3-26T14:39:14Z
2023-03-26T12:39:31Z,42.805,6.029,13.3022,4.60080,2470.656,2023-3-26T14:42:17Z
2023-03-26T12:42:34Z,42.805,6.029,13.3021,4.60080,2470.67,2023-3-26T14:45:20Z
2023-03-26T12:45:37Z,42.805,6.029,13.3021,4.60081,2470.624,2023-3-26T14:48:23Z
2023-03-26T12:48:40Z,42.805,6.029,13.3020,4.60080,2470.646,2023-3-26T14:51:26Z
2023-03-26T12:51:43Z,42.805,6.029,13.3021,4.60080,2470.646,2023-3-26T14:54:29Z
2023-03-26T12:54:47Z,42.805,6.029,13.3021,4.60081,2470.646,2023-3-26T14:57:32Z
2023-03-26T12:57:50Z,42.805,6.029,13.3021,4.60081,2470.661,2023-3-26T15:00:35Z
2023-03-26T13:00:53Z,42.805,6.029,13.3019,4.60080,2470.661,2023-3-26T15:03:38Z
2023-03-26T13:03:56Z,42.805,6.029,13.3022,4.60079,2470.661,2023-3-26T15:06:42Z
2023-03-26T13:06:59Z,42.805,6.029,13.3018,4.60079,2470.646,2023-3-26T15:09:45Z
2023-03-26T13:10:02Z,42.805,6.029,13.3019,4.60081,2470.624,2023-3-26T15:12:48Z
2023-03-26T13:13:05Z,42.805,6.029,13.3018,4.60081,2470.646,2023-3-26T15:15:51Z
2023-03-26T13:16:08Z,42.805,6.029,13.3019,4.60080,2470.624,2023-3-26T15:18:54Z
2023-03-26T13:19:11Z,42.805,6.029,13.3021,4.60080,2470.637,2023-3-26T15:21:57Z
2023-03-26T13:22:14Z,42.805,6.029,13.3022,4.60081,2470.624,2023-3-26T15:25:00Z
2023-03-26T13:25:17Z,42.805,6.029,13.3016,4.60081,2470.624,2023-3-26T15:28:03Z
2023-03-26T13:28:20Z,42.805,6.029,13.3020,4.60080,2470.646,2023-3-26T15:31:06Z
2023-03-26T13:31:24Z,42.805,6.029,13.3021,4.60080,2470.661,2023-3-26T15:34:09Z
2023-03-26T13:34:27Z,42.805,6.029,13.3022,4.60080,2470.661,2023-3-26T15:37:12Z
2023-03-26T13:37:30Z,42.805,6.029,13.3017,4.60079,2470.661,2023-3-26T15:40:15Z
2023-03-26T13:40:33Z,42.805,6.029,13.3018,4.60080,2470.646,2023-3-26T15:43:19Z
2023-03-26T13:43:36Z,42.805,6.029,13.3023,4.60078,2470.646,2023-3-26T15:46:22Z
2023-03-26T13:46:39Z,42.805,6.029,13.3021,4.60079,2470.624,2023-3-26T15:49:25Z
2023-03-26T13:49:42Z,42.805,6.029,13.3019,4.60079,2470.624,2023-3-26T15:52:28Z
2023-03-26T13:52:45Z,42.805,6.029,13.3019,4.60079,2470.67,2023-3-26T15:55:31Z
2023-03-26T13:55:48Z,42.805,6.029,13.3017,4.60079,2470.661,2023-3-26T15:58:34Z
2023-03-26T13:58:51Z,42.805,6.029,13.3022,4.60079,2470.6,2023-3-26T16:01:37Z
2023-03-26T14:01:54Z,42.805,6.029,13.3017,4.60079,2470.614,2023-3-26T16:04:40Z
2023-03-26T14:04:58Z,42.805,6.029,13.3019,4.60079,2470.6,2023-3-26T16:07:43Z
2023-03-26T14:08:01Z,42.805,6.029,13.3017,4.60078,2470.6,2023-3-26T16:10:46Z
2023-03-26T14:11:04Z,42.805,6.029,13.3020,4.60079,2470.624,2023-3-26T16:13:50Z
2023-03-26T14:14:07Z,42.805,6.029,13.3019,4.60079,2470.6,2023-3-26T16:16:53Z
2023-03-26T14:17:10Z,42.805,6.029,13.3021,4.60079,2470.624,2023-3-26T16:19:56Z
2023-03-26T14:20:13Z,42.805,6.029,13.3020,4.60079,2470.624,2023-3-26T16:22:59Z
2023-03-26T14:23:16Z,42.805,6.029,13.3019,4.60078,2470.6,2023-3-26T16:26:02Z
2023-03-26T14:26:19Z,42.805,6.029,13.3019,4.60079,2470.577,2023-3-26T16:29:05Z
2023-03-26T14:29:22Z,42.805,6.029,13.3017,4.60079,2470.6,2023-3-26T16:32:08Z
2023-03-26T14:32:26Z,42.805,6.029,13.3019,4.60079,2470.577,2023-3-26T16:35:12Z
2023-03-26T14:35:29Z,42.805,6.029,13.3018,4.60078,2470.6,2023-3-26T16:38:15Z
2023-03-26T14:38:32Z,42.805,6.029,13.3019,4.60079,2470.577,2023-3-26T16:41:18Z
2023-03-26T14:41:35Z,42.805,6.029,13.3017,4.60079,2470.586,2023-3-26T16:44:21Z
2023-03-26T14:44:38Z,42.805,6.029,13.3018,4.60078,2470.624,2023-3-26T16:47:24Z
2023-03-26T14:47:41Z,42.805,6.029,13.3021,4.60079,2470.6,2023-3-26T16:50:27Z
2023-03-26T14:50:45Z,42.805,6.029,13.3017,4.60079,2470.61,2023-3-26T16:53:30Z
2023-03-26T14:53:48Z,42.805,6.029,13.3018,4.60079,2470.6,2023-3-26T16:56:33Z
2023-03-26T14:56:51Z,42.805,6.029,13.3018,4.60079,2470.6,2023-3-26T16:59:37Z
2023-03-26T14:59:54Z,42.805,6.029,13.3018,4.60078,2470.577,2023-3-26T17:02:40Z
2023-03-26T15:02:57Z,42.805,6.029,13.3016,4.60079,2470.577,2023-3-26T17:05:43Z
2023-03-26T15:06:00Z,42.805,6.029,13.3017,4.60078,2470.6,2023-3-26T17:08:46Z
2023-03-26T15:09:03Z,42.805,6.029,13.3019,4.60078,2470.6,2023-3-26T17:11:49Z
2023-03-26T15:12:06Z,42.805,6.029,13.3019,4.60079,2470.614,2023-3-26T17:14:52Z
2023-03-26T15:15:09Z,42.805,6.029,13.3019,4.60079,2470.614,2023-3-26T17:17:55Z